Weather History for KMCD - June, 2013

Change the Weather History Date:

Monday, June 24, 2013

  Actual Average Record
Temperature  
Mean Temperature 68 °F -  
Max Temperature 74 °F 68 °F - (-1)
Min Temperature 61 °F 53 °F - (-1)
Cooling Degree Days 2    
Growing Degree Days 18 (Base 50)    
Moisture  
Dew Point 64 °F    
Average Humidity 85    
Maximum Humidity 94    
Minimum Humidity 76    
Precipitation  
Precipitation 0.00 in - - ()
Sea Level Pressure  
Sea Level Pressure 29.91 in    
Wind  
Wind Speed 8 mph (WSW)    
Max Wind Speed 15 mph    
Max Gust Speed 22 mph    
Visibility 9 miles    
Events      
Averages and records for this station are not official NWS values.
T = Trace of Precipitation, MM = Missing Value Source: NWS Daily Summary

Daily Weather History Graph

Daily Weather History Graph

Search for Another Location

Airport or City:

Trip Planner

Search our weather history database for the weather conditions in past years. The results will help you decide how hot, cold, wet, or windy it might be!

Date:

Astronomy

Jun. 24, 2013 Rise Set
Actual Time 5:49 AM EDT 9:32 PM EDT
Civil Twilight 5:10 AM EDT 10:11 PM EDT
Nautical Twilight 4:19 AM EDT 11:02 PM EDT
Astronomical Twilight 3:07 AM EDT 12:14 AM EDT
Moon 10:26 PM EDT (6/24) 7:21 AM EDT (6/24)
Length of Visible Light 17h 00m
Length of Day
15h 43m
Full, 98% of the Moon is Illuminated
Jun 24
Full
Jun 30
Last Quarter
Jul 8
New
Jul 15
First Quarter
Jul 22
Full

Hourly Weather History & Observations

Time (EDT) Temp. Dew Point Humidity Pressure Visibility Wind Dir Wind Speed Gust Speed Precip Events Conditions
12:13 AM 62.6 °F 60.3 °F 92% 29.90 in 5.0 mi Calm Calm - N/A   Clear
12:34 AM 62.6 °F 60.6 °F 93% 29.90 in 5.0 mi SW 3.5 mph - N/A   Clear
12:53 AM 63.0 °F 61.2 °F 94% 29.90 in 7.0 mi SSW 5.8 mph - N/A   Clear
1:14 AM 63.9 °F 61.7 °F 93% 29.90 in 10.0 mi SSW 5.8 mph - N/A   Clear
1:34 AM 65.5 °F 62.8 °F 91% 29.90 in 10.0 mi SSW 5.8 mph - N/A   Clear
1:53 AM 63.0 °F 61.0 °F 93% 29.90 in 5.0 mi South 5.8 mph - N/A   Clear
2:14 AM 62.6 °F 60.4 °F 93% 29.91 in 5.0 mi NW 3.5 mph - N/A   Clear
2:34 AM 61.7 °F 59.9 °F 94% 29.91 in 5.0 mi Calm Calm - N/A   Clear
2:53 AM 61.7 °F 59.9 °F 94% 29.91 in 4.0 mi NW 3.5 mph - N/A   Clear
3:14 AM 63.0 °F 61.2 °F 94% 29.91 in 7.0 mi West 5.8 mph - N/A   Clear
3:34 AM 64.0 °F 61.7 °F 92% 29.91 in 7.0 mi WSW 9.2 mph - N/A   Clear
3:53 AM 65.3 °F 62.6 °F 91% 29.91 in 10.0 mi WSW 6.9 mph - N/A   Clear
4:14 AM 65.8 °F 63.3 °F 92% 29.91 in 7.0 mi WSW 11.5 mph - N/A   Clear
4:34 AM 67.3 °F 63.7 °F 88% 29.92 in 10.0 mi WSW 8.1 mph - N/A   Scattered Clouds
4:53 AM 66.7 °F 63.1 °F 88% 29.92 in 10.0 mi West 10.4 mph - N/A   Overcast
5:14 AM 65.7 °F 62.6 °F 90% 29.92 in 10.0 mi West 11.5 mph - N/A   Mostly Cloudy
5:34 AM 65.3 °F 62.4 °F 90% 29.92 in 10.0 mi WSW 10.4 mph 16.1 mph N/A   Scattered Clouds
5:53 AM 65.7 °F 62.6 °F 90% 29.92 in 10.0 mi WSW 10.4 mph 16.1 mph N/A   Clear
6:14 AM 67.1 °F 63.1 °F 87% 29.92 in 10.0 mi WSW 12.7 mph 16.1 mph N/A   Clear
6:34 AM 67.3 °F 63.3 °F 87% 29.92 in 10.0 mi WSW 11.5 mph 17.3 mph N/A   Clear
6:53 AM 67.1 °F 62.8 °F 86% 29.92 in 10.0 mi WSW 10.4 mph 16.1 mph N/A   Clear
7:14 AM 67.8 °F 63.3 °F 85% 29.92 in 10.0 mi WSW 11.5 mph 18.4 mph N/A   Clear
7:34 AM 68.4 °F 63.5 °F 84% 29.93 in 10.0 mi WSW 6.9 mph - N/A   Clear
7:53 AM 68.7 °F 63.5 °F 83% 29.93 in 10.0 mi WSW 10.4 mph 16.1 mph N/A   Clear
8:14 AM 68.4 °F 63.0 °F 83% 29.93 in 10.0 mi West 8.1 mph - N/A   Clear
8:33 AM 68.9 °F 63.5 °F 83% 29.93 in 10.0 mi WSW 6.9 mph - N/A   Clear
8:53 AM 69.4 °F 63.9 °F 82% 29.93 in 10.0 mi West 8.1 mph - N/A   Clear
9:14 AM 70.3 °F 64.4 °F 81% 29.93 in 10.0 mi West 9.2 mph 16.1 mph N/A   Clear
9:33 AM 70.7 °F 64.9 °F 82% 29.93 in 10.0 mi West 6.9 mph - N/A   Scattered Clouds
9:53 AM 70.7 °F 64.8 °F 81% 29.94 in 10.0 mi WSW 10.4 mph 18.4 mph N/A   Scattered Clouds
10:13 AM 70.2 °F 64.6 °F 82% 29.94 in 10.0 mi WSW 12.7 mph 18.4 mph N/A   Clear
10:33 AM 70.3 °F 64.6 °F 82% 29.95 in 10.0 mi WSW 10.4 mph 19.6 mph N/A   Scattered Clouds
10:54 AM 69.3 °F 63.7 °F 82% 29.97 in 10.0 mi West 10.4 mph 19.6 mph N/A   Mostly Cloudy
11:13 AM 68.4 °F 63.5 °F 84% 29.97 in 10.0 mi WSW 13.8 mph 20.7 mph N/A   Mostly Cloudy
11:33 AM 68.9 °F 63.5 °F 83% 29.98 in 10.0 mi West 10.4 mph 17.3 mph N/A   Overcast
11:54 AM 68.5 °F 63.7 °F 84% 29.98 in 7.0 mi WSW 9.2 mph 17.3 mph N/A   Overcast
12:14 PM 67.6 °F 63.5 °F 87% 29.97 in 7.0 mi WSW 8.1 mph 16.1 mph N/A   Overcast
12:33 PM 68.4 °F 64.0 °F 86% 29.97 in 7.0 mi WSW 10.4 mph 16.1 mph N/A   Scattered Clouds
12:54 PM 70.2 °F 65.1 °F 84% 29.96 in 10.0 mi West 11.5 mph 17.3 mph N/A   Clear
1:13 PM 71.6 °F 65.8 °F 82% 29.96 in 10.0 mi West 13.8 mph 20.7 mph N/A   Mostly Cloudy
1:33 PM 72.5 °F 66.2 °F 81% 29.95 in 10.0 mi West 8.1 mph 16.1 mph N/A   Overcast
1:54 PM 72.1 °F 66.2 °F 82% 29.95 in 10.0 mi WSW 10.4 mph 18.4 mph N/A   Overcast
2:13 PM 74.3 °F 67.3 °F 79% 29.94 in 10.0 mi WSW 9.2 mph - N/A   Mostly Cloudy
2:33 PM 74.3 °F 66.7 °F 77% 29.94 in 10.0 mi West 15.0 mph 18.4 mph N/A   Mostly Cloudy
2:54 PM 73.4 °F 66.6 °F 79% 29.92 in 10.0 mi West 11.5 mph 17.3 mph N/A   Overcast
3:13 PM 73.9 °F 66.7 °F 78% 29.92 in 10.0 mi West 13.8 mph - N/A   Mostly Cloudy
3:33 PM 73.0 °F 66.2 °F 79% 29.92 in 10.0 mi WSW 11.5 mph - N/A   Overcast
3:54 PM 72.7 °F 65.7 °F 79% 29.91 in 10.0 mi WSW 15.0 mph 18.4 mph N/A   Scattered Clouds
4:13 PM 72.0 °F 65.5 °F 80% 29.92 in 10.0 mi WSW 11.5 mph 21.9 mph N/A   Clear
4:33 PM 73.2 °F 66.0 °F 78% 29.90 in 10.0 mi WSW 15.0 mph 20.7 mph N/A   Clear
4:54 PM 74.1 °F 66.0 °F 76% 29.90 in 10.0 mi WSW 12.7 mph 20.7 mph N/A   Clear
5:13 PM 73.4 °F 65.3 °F 76% 29.88 in 10.0 mi WSW 6.9 mph - N/A   Clear
5:33 PM 73.2 °F 65.1 °F 76% 29.88 in 10.0 mi WSW 10.4 mph - N/A   Clear
5:54 PM 72.3 °F 65.1 °F 78% 29.87 in 10.0 mi WSW 6.9 mph - N/A   Clear
6:13 PM 72.5 °F 65.3 °F 78% 29.87 in 10.0 mi WSW 8.1 mph 19.6 mph N/A   Clear
6:34 PM 72.7 °F 65.1 °F 77% 29.87 in 10.0 mi WSW 10.4 mph 20.7 mph N/A   Clear
6:54 PM 72.0 °F 64.8 °F 78% 29.87 in 10.0 mi WSW 12.7 mph 20.7 mph N/A   Clear
7:13 PM 71.6 °F 65.3 °F 80% 29.87 in 10.0 mi WSW 12.7 mph 19.6 mph N/A   Clear
7:34 PM 72.5 °F 65.8 °F 80% 29.88 in 10.0 mi WSW 15.0 mph 18.4 mph N/A   Clear
7:54 PM 72.5 °F 66.2 °F 81% 29.88 in 10.0 mi WSW 11.5 mph 20.7 mph N/A   Clear
8:13 PM 71.4 °F 65.8 °F 82% 29.87 in 10.0 mi WSW 10.4 mph 17.3 mph N/A   Clear
8:34 PM 70.5 °F 65.5 °F 84% 29.87 in 10.0 mi WSW 11.5 mph 19.6 mph N/A   Clear
8:54 PM 69.8 °F 65.3 °F 86% 29.87 in 10.0 mi WSW 10.4 mph 16.1 mph N/A   Clear
9:13 PM 69.1 °F 65.1 °F 87% 29.86 in 7.0 mi West 10.4 mph 17.3 mph N/A   Clear
9:34 PM 68.7 °F 64.8 °F 87% 29.87 in 7.0 mi West 12.7 mph 18.4 mph N/A   Clear
9:53 PM 67.3 °F 63.5 °F 88% 29.86 in 7.0 mi West 11.5 mph 17.3 mph N/A   Clear
10:13 PM 66.2 °F 62.4 °F 88% 29.87 in 10.0 mi West 9.2 mph - N/A   Clear
10:34 PM 65.5 °F 62.1 °F 89% 29.86 in 10.0 mi West 8.1 mph - N/A   Clear
10:53 PM 65.3 °F 61.7 °F 88% 29.86 in 10.0 mi West 8.1 mph - N/A   Clear
11:13 PM 65.5 °F 61.7 °F 88% 29.86 in 10.0 mi West 8.1 mph - N/A   Clear
11:34 PM 65.7 °F 61.7 °F 87% 29.87 in 10.0 mi WSW 9.2 mph - N/A   Clear
11:53 PM 66.0 °F 61.5 °F 85% 29.88 in 10.0 mi WSW 6.9 mph - N/A   Clear